Location: Newark
(45.9167°N, 5.5000°E)
Time: 19:56:27
(UTC+00:00)

N. Korean satellite - Pass Details

Date: 26 January 2020
Orbit: 456 x 506 km, 97.2° (Epoch: 17 February)

Event Time Altitude Azimuth Distance (km) Brightness Sun altitude
Rises 05:16:53 0° 16° (NNE) 2,539 10.3 -19.1°
Reaches altitude 10° 05:18:57 10° 20° (NNE) 1,663 9.4 -18.8°
Maximum altitude 05:22:29 58° 100° (E) 573 7.2 -18.2°
Drops below altitude 10° 05:26:03 10° 181° (S) 1,677 9.4 -17.6°
Sets 05:28:09 0° 185° (S) 2,562 10.3 -17.2°
